www.pogodaiklimat.ru

АРХИВ ПОГОДЫ в Саванне

Время (UTC), дата Ветер
(напр.,м/с)
 
Видим.   Явления Облачность Т
(С)
Тd
(С)
f
(%)
Тe
(С)
Тes
(С)
Комфортность

P
(гПа)

Po
(гПа)
Тmin
(С)
Tmax
(С)
R
(мм)
SD
(см)
02:53 19.07 ЮЗ  16 км    10/2 1800 м
[средняя верхняя] 
+26.1  +22.8  82  +35  +35  очень
душно 
1018.4  1016.7         
03:53 19.07   16 км    ясно  +26.1  +22.2  79  +34  +34  очень
душно 
1017.1  1015.3         
04:53 19.07   16 км    ясно  +25.6  +22.8  85  +34  +34  очень
душно 
1017.3  1015.7  +25.0  +27.8     
05:53 19.07 С  16 км    ясно  +25.0  +23.3  90  +33  +33  очень
душно 
1016.7  1015.0         
06:53 19.07 Ю  16 км    ясно  +25.0  +23.3  90  +33  +33  очень
душно 
1016.6  1015.0         
07:53 19.07   16 км    ясно  +25.0  +23.3  90  +33  +33  очень
душно 
1016.7  1015.0         
08:53 19.07 Ю  16 км    8/0 6600 м
[верхняя] 
+25.0  +22.8  88  +33  +33  очень
душно 
1017.1  1015.3         
09:53 19.07 ЮЗ  16 км    8/0 5700 м
[средняя верхняя] 
+24.4  +22.8  91  +32  +32  очень
душно 
1017.6  1015.7         
10:53 19.07 З  16 км    8/0 6000 м
[средняя верхняя] 
+25.0  +23.3  90  +33  +34  очень
душно 
1018.3  1016.4  +24.4  +25.6     
11:53 19.07 З  16 км    8/0 6000 м
[средняя верхняя] 
+27.8  +23.9  79  +38  +39  очень
душно 
1018.7  1017.0         
12:53 19.07 З  16 км    8/0 6000 м
[средняя верхняя] 
+29.4  +22.8  68  +39  +41  очень
душно 
1019.2  1017.4         
13:53 19.07 З  16 км    8/0 6000 м
[средняя верхняя] 
+30.6  +23.3  65  +41  +45  опасность
перегрева 
1019.2  1017.4         
14:53 19.07 СЗ  16 км    8/0 6000 м
[средняя верхняя] 
+31.1  +22.8  61  +41  +48  опасность
перегрева 
1019.3  1017.4         
15:53 19.07 нст  16 км    8/0 4500 м
[средняя] 
+32.2  +23.9  62  +44  +53  опасность
перегрева 
1019.0  1017.0         
16:53 19.07 З  16 км    8/2 1500 м
[средняя] 
+33.3  +23.9  58  +45  +50  опасность
перегрева 
1018.3  1016.4  +25.0  +33.3     
17:53 19.07 ЮЗ  16 км    8/5 1320 м
[средняя] 
+34.4  +23.3  53  +45  +49  опасность
перегрева 
1017.1  1015.3         
18:53 19.07 З  16 км    8/5 1350 м
[средняя] 
+35.0  +21.7  46  +43  +47  опасность
перегрева 
1016.5  1014.7         
19:48 19.07 Ю  16 км  гроза  8/5 1350 м
[средняя] 
+34.0  +25.0  59  +47  +49  опасность
перегрева 
  1014.3         
19:53 19.07 Ю  16 км  гроза  8/5 1350 м
[средняя] 
+33.9  +25.6  62  +49  +50  опасность
перегрева 
1016.4  1014.7         
20:37 19.07 Ю  16 км  гроза  8/5 900 м
[средняя] 
+32.2  +23.3  59  +43  +43  опасность
перегрева 
  1015.3         
20:53 19.07 Ю  16 км    5/5 900 м
[средняя] 
+31.7  +22.8  59  +41  +42  опасность
перегрева 
1016.9  1015.0         
21:53 19.07 ЮЗ  10
{13} 
16 км    8/5 960 м
[средняя] 
+29.4  +22.2  65  +38  +38  очень
душно 
1017.0  1015.3         
22:53 19.07 ЮЗ  16 км    8/2 960 м
[средняя] 
+27.8  +22.2  72  +36  +37  очень
душно 
1016.9  1015.0  +27.8  +35.0     
23:53 19.07 З  16 км    5/2 1800 м
[средняя] 
+26.7  +21.7  74  +34  +34  очень
душно 
1018.0  1016.4         
00:53 20.07 З  16 км    5/0 3600 м
[средняя] 
+26.7  +21.1  71  +34  +34  очень
душно 
1018.7  1017.0         
01:53 20.07 З  16 км    2/0 6000 м
[средняя] 
+25.6  +21.7  79  +33  +33  очень
душно 
1018.7  1017.0         
02:53 20.07 З  16 км    2/0 2400 м
[средняя] 
+24.4  +21.7  85  +31  +31  очень
душно 
1018.7  1017.0         
03:53 20.07 З  16 км    ясно  +23.9  +21.7  88  +31  +31  очень
душно 
1018.5  1016.7         
04:53 20.07   16 км    ясно  +23.9  +21.7  88  +31  +31  очень
душно 
1017.9  1016.0  +23.9  +27.8     
05:53 20.07   16 км    ясно  +23.3  +21.7  91  +32  +32  очень
душно 
1017.1  1015.3         
06:53 20.07 ЮЗ  16 км    ясно  +22.8  +21.7  94  +31  +31  очень
душно 
1017.3  1015.3         
07:53 20.07 ЮЗ  16 км    ясно  +22.8  +21.7  94  +31  +31  очень
душно 
1017.8  1016.0         
08:53 20.07 ЮЗ  16 км    2/2 300 м  +22.2  +21.7  97  +29  +29  очень
душно 
1018.5  1016.7         
09:53 20.07   16 км    2/2 600 м
[верхняя] 
+22.2  +21.7  97  +29  +29  очень
душно 
1018.8  1017.0         
10:43 20.07 З  16 км    5/2 150 м
[верхняя] 
+22.8  +22.2  96  +31  +31  очень
душно 
  1017.4         
10:53 20.07 З  16 км    5/2 150 м
[верхняя] 
+23.3  +22.2  94  +32  +32  очень
душно 
1019.3  1017.4  +22.2  +23.9     
11:53 20.07 З  16 км    2/2 750 м
[верхняя] 
+25.6  +22.8  85  +34  +35  очень
душно 
1019.7  1017.7         
12:53 20.07 З  16 км    2/0 6600 м
[верхняя] 
+27.2  +21.7  72  +35  +39  очень
душно 
1019.5  1017.7         
13:53 20.07 ЮЗ  16 км    2/0 6600 м
[верхняя] 
+29.4  +21.7  63  +37  +45  очень
душно 
1019.3  1017.4         
14:53 20.07 З  16 км    2/0 6600 м
[верхняя] 
+31.1  +21.7  57  +39  +47  очень
душно 
1019.3  1017.4         
15:53 20.07 ЮЗ  16 км    2/2 1350 м
[верхняя] 
+32.2  +21.1  52  +40  +49  очень
душно 
1018.8  1017.0         
16:53 20.07 ЮЗ  16 км    2/2 1350 м
[верхняя] 
+32.8  +21.1  50  +40  +51  опасность
солнечного
удара 
1018.4  1016.7  +23.3  +33.3     
17:53 20.07 ЮЗ  16 км    5/5 1350 м  +33.3  +21.7  51  +42  +49  опасность
перегрева 
1017.6  1015.7         
18:53 20.07 ЮЗ  16 км    5/5 1650 м  +33.9  +21.7  49  +42  +48  опасность
перегрева 
1016.5  1014.7         
19:53 20.07   16 км    5/5 1200 м  +34.4  +21.7  48  +43  +52  опасность
перегрева 
1016.0  1014.3         
20:53 20.07 ЮЗ  16 км    5/5 1200 м  +34.4  +20.6  45  +41  +45  опасность
перегрева 
1015.9  1014.0         
21:53 20.07 ЮЗ  16 км    2/2 1200 м  +33.9  +20.6  46  +41  +44  опасность
перегрева 
1015.8  1014.0         
22:53 20.07 Ю  16 км    5/5 1200 м
[верхняя] 
+31.1  +25.0  70  +45  +45  опасность
перегрева 
1016.1  1014.3  +31.1  +35.0     

 

Местоположение метеостанции Savannah International Airport: широта 32.1189 долгота -81.2022 высота над уровнем моря 15 м.

В архиве по умолчанию представлена погода в Саванне за последние 1-2 суток. Обновление информации о фактической погоде в базе происходит ежечасно! Архивные данные за месяц целиком и за предыдущие месяцы Вы можете получить, выбрав интересующий диапазон дат из раскрывающегося списка и нажав кнопку "Ввод!".

Внимание! Архив погоды МЕТАР в базе сайта в настоящее время начинается c 1 января 2011 г. Нет смысла пытаться выбрать более раннюю дату.

Внимание! Время в таблицах - всемирное. Для получения местного времени необходимо прибавить поправку, которая в Саванне равна -5 ч.

Ветер - указаны скорость ветра в м/с и направление, откуда дует ветер: С - северный, СВ - северо-восточный, В - восточный, ЮВ - юго-восточный, Ю - южный, ЮЗ - юго-западный, З - западный, СЗ - северо-западный.
Видимость - горизонтальная дальность видимости в метрах или километрах. При видимости от 1 до 10 км при отсутствии осадков обычно наблюдается дымка, при ухудшении видимости до 1 км и менее - туман. В сухую погоду видимость может ухудшаться дымом, пылью или мглою.
Атмосферные явления - указаны явления, наблюдавшиеся в указанный момент времени.
Облачность - указаны через наклонную черту верхняя и нижняя облачность в баллах и высота нижней границы облаков в метрах. Внимание: облачность, как и прочие метеорологические величины в США измеряются автоматическими метеостанциями. Указанные значения в баллах носят условный характер и показывают процент времени, в течение которого, в среднем, лазерный луч высотомера отражался от облаков обратно.
T - Температура воздуха - температура, измеренная на высоте 2 м над землей.
Td - Температура точки росы - температура, при понижении до которой содержащийся в воздухе водяной пар достигнет насыщения.
f - Относительная влажность воздуха - влажноcть воздуха, измеренная на высоте 2 м над землей.
Te - Эффективная температура - температура, которую ощущает одетый по сезону человек в тени. Характеристика душности погоды. При расчете учитывается влияние влажности воздуха и скорости ветра на теплоощущения человека.
Tes - Эффективная температура на солнце - температура, которую ощущает человек, с поправкой на солнечный нагрев. Характеристика знойности погоды. Зависит от высоты солнца над горизонтом, облачности и скорости ветра. Ночью, в пасмурную погоду, а также при ветре 12 м/с и более поправка равна нулю.
P - Атмосферное давление - приведенное к уровню моря атмосферное давление.
Po - Атмосферное давление - измеренное на уровне метеостанции атмосферное давление.
Tmin - Минимальная температура - минимум температуры воздуха на высоте 2 м над землей.
Tmax - Максимальная температура - максимум температуры воздуха на высоте 2 м над землей.
R - Количество осадков - Количество выпавших осадков за 3 или 6 часов, мм.
SD - Снежный покров - Высота снежного покрова, см.